Orbital Elements at Epoch 2459000.5 (2020-May-31.0) TDB
Reference: JPL 13 (heliocentric ecliptic J2000)
Element | Value | Uncertainty (1-sigma) | Units |
e | .2920032829218157 | 5.199e-08 | |
a | 2.414239330416895 | 1.2978e-08 | au |
q | 1.709273520176195 | 1.2825e-07 | au |
i | 2.498030470426157 | 7.3613e-06 | deg |
node | 97.16958961145689 | 0.00012555 | deg |
peri | 208.5534698124317 | 0.00012653 | deg |
M | 329.1912502938159 | 1.2783e-05 | deg |
tp | 2459117.757459673314 (2020-Sep-25.25745967) | 4.8743e-05 | TDB |
period | 1370.152501642089 3.75 | 1.1048e-05 3.025e-08 | d yr |
n | .2627444752088182 | 2.1186e-09 | deg/d |
Q | 3.119205140657594 | 1.6767e-08 | au |
|
| | Orbit Determination Parameters
Additional Information
|